EHI
0 0 0 0 0 0 0 0 0 0 0 0 0 0 0 0 0 0 0 0 0 0 0 0 0 0 0 0 0 0 0 0 0 0 0 0 0 0
0 0 0 0 0 0 0 0 0 0 0 0 0 0 0 0 0 0 0 0 0 0 0 0 0 0 0 0 0 0 0 0 0 0 0 0 0 0
0 0 0 0 0 0 0 0 0 0 0 0 0 0 0 0 0 0 0 0 0 0 0 0 0 0 0 0 0 0 0 0 0 0 0 0 0 0
0 0 0 0 0 0 0 0 0 0 0 0 0 0 0 0 0 0 0 0 0 0 0 0 0 0 0 0 0 0 0 0 0 0 0 0 0 0
0 0 0 0 0 0 0 0 0 0 0 0 0 0 0 0 0 0 0 0 0 0 0 0 0 0 0 0 0 0 0 0 0 0 0 0 0 0
0 0 0 0 0 0 0 0 0 0 0 0 0 0 0 0 0 0 0 0 0 0 0 0 0 0 0 0 0 0 0 0 0 0 0 0 0 0
0 0 0 0 0 0 0 0 0 0 0 0 0 0 0 0 0 0 0 0 0 0 0 0 0 0 0 0 0 0 0 0 0 0 0 0 0 0
0 0 0 0 0 0 0 0 0 0 0 0 0 0 0 0 0 0 0 0 0 0 0 0 0 0 0 0 0 0 0 0 0 0 0 0 0 0
0 0 0 0 0 0 0 0 0 0 0 0 0 0 0 0 0 0 0 0 0 0 0 0 0 0 0 0 0 0 0 0 0 0 0 0 0 0
0 0 0 0 0 0 0 0 0 0 0 0 0 0 0 0 0 0 0 0 0 0 0 0 0 0 0 0 0 0 0 0 0 0 0 0 0 0
0 0 0 0 0 0 0 0 0 0 0 0 0 0 0 0 0 0 0 0 0 0 0 0 0 0 0 0 0 0 0 0 0 0 0 0 0 0
0 0 0 0 0 0 0 0 0 0 0 0 0 0 0 0 0 0 0 0 0 0 0 0 0 0 0 0 0 0 0 0 0 0 0 0 0 0
0 0 0 0 0 0 0 0 0 0 0 0 0 0 0 0 0 0 0 0 0 0 0 0 0 0 0 0 0 0 0 0 0 0 0 0 0 0
0 0 0 0 0 0 0 0 0 0 0 0 0 0 0 0 0 0 0 0 0 0 0 0 0 0 0 0 0 0 0 0 0 0 0 0 0 0
0 0 0 0 0 0 0 0 0 0 0 0 0 0 0 0 0 0 0 0 0 0 0 0 0 0 0 0 0 0 0 0 0 0 0 0 0 0
0 0 0 0 0 0 0 0 0 0 0 0 0 0 0 0 0 0 0 0 0 0 0 0 0 0 0 0 0 0 0 0 0 0 0 0 0 0
0 0 0 0 0 0 0 0 0 0 0 0 0 0 0 0 0 0 0 0 0 0 0 0 0 0 0 0 0 0 0 0 0 0 0 0 0 0
0 0 0 0 0 0 0 0 0 0 0 0 0 0 0 0 0 0 0 0 0 0 0 0 0 0 0 0 0 0 0 0 0 0 0 0 0 0
0 0 0 0 0 0 0 0 0 0 0 0 0 0 0 0 0 0 0 0 0 0 0 0 0 0 0 0 0 0 0 0 0 0 0 0 0 0
0 0 0 0 0 0 0 0 0 0 0 0 0 0 0 0 0 0 0 0 0 0 0 0 0 0 0 0 0 0 0 0 0 0 0 0 0 0
0 0 0 0 0 0 0 0 0 0 0 0 0 0 0 0 0 0 0 0 0 0 0 0 0 0 0 0 0 0 0 0 0 0 0 0 0 0
0 0 0 0 0 0 0 0 0 0 0 0 0 0 0 0 0 0 0 0 0 0 0 0 0 0 0 0 0 0 0 0 0 0 0 0 0 0
0 0 0 0 0 0 0 0 0 0 0 0 0 0 0 0 0 0 0 0 0 0 0 0 0 0 0 0 0 0 0 0 0 0 0 0 0 0
Wind_Speed
2 2 1 0 0 1 1 2 2 2 1 1 0 1 2 2 3 3 3 6 7 7 6 6 6 6 6 6 6 6 7 7 7 7 6 6 6 6
2 2 1 0 0 0 1 1 1 2 1 1 0 1 1 2 3 3 3 5 6 6 6 6 6 6 6 6 6 6 6 6 6 6 6 6 6 6
3 2 2 1 1 0 1 1 1 1 1 1 0 1 1 1 2 2 2 2 3 5 5 5 5 6 6 6 5 5 5 5 5 5 5 5 5 6
4 3 2 1 2 1 1 1 1 1 2 2 1 1 1 1 1 2 2 2 2 3 4 4 4 4 4 5 5 5 5 4 4 4 4 4 4 4
3 3 2 1 2 1 1 1 1 1 2 2 1 1 0 0 1 2 2 2 2 2 2 3 3 3 3 3 3 4 3 3 3 3 3 3 3 3
3 3 3 2 0 0 1 1 2 2 2 2 2 1 0 0 0 1 1 2 2 2 2 2 2 2 1 2 2 3 3 3 3 3 3 3 3 3
4 4 3 3 1 0 1 1 2 2 2 2 2 1 1 0 0 0 0 1 1 1 1 1 1 0 0 1 2 3 3 3 3 4 4 4 4 5
4 4 4 4 3 2 2 1 2 3 3 2 2 2 1 1 1 1 1 0 1 0 1 1 1 1 2 2 3 4 4 4 5 5 5 6 6 7
3 3 3 4 4 2 3 3 2 1 4 3 3 3 3 3 2 1 1 1 2 1 0 2 1 2 2 3 5 6 6 6 6 6 7 8 8 8
2 3 3 3 3 2 2 2 2 1 1 2 3 3 3 3 3 2 2 1 2 1 2 1 1 2 2 3 6 7 8 8 8 8 9 9 9 9
3 3 2 2 3 2 2 2 2 2 1 1 3 3 4 4 4 2 2 1 1 1 2 2 1 2 2 3 4 6 8 9 9 10 10 10 10 8
3 3 4 3 3 2 1 0 1 2 1 2 1 0 1 2 5 4 3 2 1 2 2 2 1 1 2 2 2 3 4 7 9 10 10 11 9 6
2 3 3 4 3 2 1 1 2 2 1 1 1 1 1 1 2 3 4 4 3 3 2 3 2 2 2 3 3 3 3 3 4 5 8 10 9 8
2 2 3 4 4 3 2 2 2 1 1 1 1 1 2 2 2 2 4 5 5 5 4 4 3 3 2 3 4 3 3 4 4 4 5 6 8 10
2 4 4 5 4 3 3 3 2 1 1 1 2 2 2 2 2 2 2 3 4 6 6 6 6 4 4 4 4 4 4 4 4 4 5 5 5 5
2 3 4 4 2 3 3 2 1 2 2 2 2 2 2 2 2 2 2 1 2 3 4 6 7 6 5 6 5 6 5 5 4 5 5 5 6 6
2 2 2 2 3 3 2 2 2 1 2 2 2 3 3 3 2 2 2 2 2 3 4 2 3 5 7 6 5 7 6 6 6 5 4 6 6 6
1 2 3 3 3 4 4 4 3 3 3 3 3 3 3 3 3 2 2 3 4 4 4 4 2 2 3 6 10 8 7 7 6 6 5 6 8 7
2 3 4 4 4 4 4 4 4 4 3 3 4 4 4 4 3 4 3 3 4 5 5 4 4 3 5 8 6 10 8 7 6 6 6 6 8 8
4 5 5 5 5 5 5 5 5 4 4 4 4 4 4 4 4 5 5 5 5 6 6 5 5 6 7 7 7 6 9 9 7 7 7 6 7 9
5 6 6 6 6 6 6 6 5 5 5 4 5 5 5 5 5 6 6 7 6 6 7 7 7 7 5 4 6 7 7 10 11 8 7 7 7 7
7 7 7 7 6 6 6 5 5 6 6 6 6 6 5 5 6 7 7 6 6 7 8 7 6 4 4 6 8 9 9 8 9 14 15 12 7 8
7 7 7 7 6 6 6 6 7 6 6 6 6 6 6 6 6 6 7 7 7 8 8 7 6 5 6 7 8 9 11 11 8 8 9 12 18 20
Wind_Direction
337 326 302 281 203 212 185 173 170 178 194 178 73 19 13 28 23 24 23 31 37 39 41 44 50 63 74 82 91 96 99 105 111 116 119 125 134 140
336 358 9 342 77 142 170 173 178 161 160 156 129 17 356 28 37 28 26 32 35 38 44 47 54 65 74 82 91 99 104 108 115 117 122 129 131 139
356 9 9 14 65 71 126 130 127 136 149 126 87 54 27 33 20 18 25 31 30 38 45 50 58 66 72 79 89 97 100 103 107 111 117 125 127 132
352 1 4 32 56 61 103 123 134 143 151 150 110 76 47 18 12 16 15 26 34 40 49 56 64 73 80 85 94 99 99 101 107 113 117 126 133 140
350 0 357 25 48 55 87 102 119 122 129 141 128 79 51 7 21 24 18 9 12 43 48 52 64 75 85 96 108 115 119 125 132 136 136 136 142 153
1 5 6 18 32 93 103 113 120 117 119 124 125 113 103 27 53 30 6 4 352 8 27 24 45 59 82 120 141 150 158 169 179 181 179 180 189 201
7 3 4 19 32 85 134 149 137 132 128 128 129 121 119 130 183 292 318 333 322 333 337 332 344 334 169 171 184 187 194 204 213 215 214 216 221 228
2 354 357 12 13 41 62 114 170 172 166 163 163 172 186 192 183 178 173 334 307 306 296 294 240 254 240 224 221 224 225 227 229 229 229 230 231 233
1 354 358 4 14 36 42 46 43 192 194 180 179 190 189 192 185 193 210 236 249 260 262 291 283 271 256 239 233 234 234 235 237 239 240 240 240 240
359 353 348 345 4 29 45 39 22 4 214 197 197 204 208 204 200 201 212 235 261 239 211 258 276 274 279 260 242 238 240 241 243 244 244 245 246 246
349 351 346 344 351 20 49 34 8 351 20 153 191 209 217 214 194 179 190 188 277 264 195 228 267 286 279 266 253 244 244 245 246 247 247 247 247 249
338 343 350 351 348 358 15 42 340 320 347 12 32 59 213 207 201 205 204 197 230 260 202 205 241 268 284 265 265 261 252 251 251 252 250 250 246 245
328 331 331 344 346 337 304 249 245 253 286 290 302 302 281 238 222 211 205 202 212 243 209 191 224 222 255 287 287 270 260 262 261 254 249 248 243 230
291 300 306 324 331 327 307 272 255 243 227 250 259 275 273 269 259 238 220 220 229 244 229 198 226 215 228 262 276 278 271 261 254 258 262 259 251 239
277 290 302 313 318 319 301 289 280 227 211 223 244 257 256 259 268 271 241 225 239 243 233 217 220 222 224 243 260 266 279 275 253 254 262 260 259 250
306 309 312 310 305 291 300 305 274 230 219 238 254 262 265 263 258 252 255 258 274 276 238 219 217 213 226 236 244 259 259 263 269 265 267 267 259 247
308 317 324 325 328 321 312 298 279 248 235 242 252 268 273 271 266 241 233 234 241 265 283 266 219 222 233 240 250 256 260 262 263 267 264 272 267 256
275 287 293 294 293 294 299 302 291 273 259 250 251 252 259 262 267 254 229 236 252 262 266 270 267 254 247 240 224 248 261 263 268 261 253 264 274 269
236 266 273 279 280 280 274 271 273 272 260 250 248 249 250 254 256 261 255 248 255 261 264 261 250 249 274 286 263 215 235 264 269 269 258 251 264 273
239 256 265 269 269 270 269 265 266 269 259 253 252 251 247 247 253 255 252 250 258 264 268 261 246 236 242 267 281 271 230 241 258 266 271 266 263 268
255 254 256 260 261 260 261 260 258 260 261 257 254 251 247 242 249 254 254 253 252 256 261 265 259 243 243 248 262 267 261 232 229 246 264 273 277 277
260 260 260 257 257 258 260 259 259 258 258 256 256 255 251 247 251 256 256 257 255 254 260 267 270 253 231 242 262 274 278 278 252 238 239 237 255 269
259 261 263 263 260 259 258 256 254 257 256 256 258 257 254 252 252 253 255 257 260 263 266 270 270 256 252 255 265 274 279 283 285 283 271 249 236 246